Miscellaneous Local Product
Issued by NWS Hastings, NE

Home | Current Version | Previous Version | Graphics & Text | Print | Product List | Glossary On
Versions: 1 2 3 4 5 6 7 8 9 10 11 12 13 14 15 16 17 18 19 20 21 22 23 24 25 26 27 28 29 30 31 32 33 34 35 36 37 38 39 40 41 42 43 44 45 46 47 48 49 50
000
AXUS43 KGID 192002
MISGRI

GID CWA HOURLY WEATHER ROUNDUP
NATIONAL WEATHER SERVICE HASTINGS NE
200 PM CST MON FEB 19 2018

NOTE: "FAIR" INDICATES FEW OR NO CLOUDS BELOW 12,000 FEET WITH NO
SIGNIFICANT WEATHER AND/OR OBSTRUCTIONS TO VISIBILITY.

...SOUTH CENTRAL NEBRASKA...

CITY           SKY/WX    TMP DP  RH WIND       PRES   REMARKS
GRAND ISLAND   LGT SNOW  17  13  84 N15       29.84S FOG     WCI   2
KEARNEY        FLURRIES  17  12  80 N16       29.84F WCI   2
HASTINGS       LGT SNOW  17  13  84 N18       29.83F FOG     WCI   1
ORD            LGT SNOW  14  10  84 N16G25    29.84F FOG     WCI  -2
YORK           FLURRIES  18  18 100 N14       29.82S WCI   4
AURORA         LGT SNOW  17  13  84 N14       29.83S WCI   3
LEXINGTON      FLURRIES  16  11  80 N14       29.84R WCI   2
HOLDREGE       LGT SNOW  17  15  89 N10G16    29.81F WCI   5
HEBRON         CLOUDY    22  18  85 N14G20    29.83F WCI   9

...NEBRASKA PANHANDLE...

CITY           SKY/WX    TMP DP  RH WIND       PRES   REMARKS
CHADRON        LGT SNOW   4  -2  76 NE14      29.88F WCI -14
ALLIANCE       CLOUDY     4   0  83 N17       29.78F FOG     WCI -16
SCOTTSBLUFF    LGT SNOW   7   0  73 NE12      29.77F WCI  -8
SIDNEY         LGT SNOW   8   4  83 NE8       29.72F FOG     WCI  -4

...WESTERN AND NORTH CENTRAL NEBRASKA...

CITY           SKY/WX    TMP DP  RH WIND       PRES   REMARKS
VALENTINE      LGT SNOW   9   1  70 N15       29.91F WCI  -8
AINSWORTH      LGT SNOW   8   5  86 N22G29    29.88F WCI -12
ONEILL         LGT SNOW  12   9  88 N22       29.88F WCI  -7
BROKEN BOW     LGT SNOW  13   8  81 N18G28    29.81F WCI  -4
IMPERIAL       CLOUDY    14   9  80 N12       29.78F WCI   0
NORTH PLATTE   LGT SNOW  13   7  77 N15G24    29.81F WCI  -3
MCCOOK         CLOUDY    16  12  84 N8        29.83S FOG     WCI   5

...EASTERN NEBRASKA...

CITY           SKY/WX    TMP DP  RH WIND       PRES   REMARKS
NORFOLK        LGT SNOW  17  14  88 N16G23    29.83F FOG     WCI   2
SO SIOUX CITY  CLOUDY    20  18  92 N14       29.85R WCI   7
TEKAMAH        CLOUDY    22  20  92 N17       29.83S WCI   8
COLUMBUS       FLURRIES  20  17  88 NW16      29.83F WCI   6
ALBION         LGT SNOW  16  11  80 N15       29.85F WCI   1
OMAHA EPPLEY   FLURRIES  24  22  91 NW15      29.81S WCI  11
OFFUTT AFB     CLOUDY    24  22  92 NW10      29.80S WCI  14
MILLARD        CLOUDY    25  22  88 NW13      29.81F WCI  14
LINCOLN        FLURRIES  22  19  89 N15       29.84F WCI   9
NEBRASKA CITY  CLOUDY    25  25 100 N12       29.80S WCI  14
BEATRICE       CLOUDY    25  23  91 N13       29.82S WCI  14
FALLS CITY     CLOUDY    27  25  92 NW15G21   29.79F WCI  15

...NORTHERN KANSAS...

CITY           SKY/WX    TMP DP  RH WIND       PRES   REMARKS
GOODLAND       LGT SNOW  18  12  77 NE8       29.72F WCI   8
HILL CITY      CLOUDY    22  14  71 N10       29.83F WCI  11
NORTON         CLOUDY    19  10  68 N8        29.82S WCI   9
PHILLIPSBURG   CLOUDY    21  14  73 N12       29.84F WCI   9
SMITH CENTER   CLOUDY    21  14  73 N8        29.85F WCI  12
BELOIT         CLOUDY    25  16  68 CALM      29.86R
HAYS           CLOUDY    25  16  68 N10       29.81F WCI  15
RUSSELL        CLOUDY    28  17  63 N13       29.80F WCI  17
CONCORDIA      CLOUDY    24  18  77 N14       29.82F WCI  12
SALINA         CLOUDY    30  20  66 NW16      29.83F WCI  19
TOPEKA         CLOUDY    34  29  82 NW13      29.79F WCI  25



USA.gov is the U.S. government's official web portal to all federal, state and local government web resources and services.